NANOSAT-1 1 28493U 04049B 21018.86526154 .00000075 00000-0 19396-4 0 9996 2 28493 98.1135 114.6936 0005537 128.4356 231.7349 14.73636597864079 PARASOL 1 28498U 04049G 21019.14477047 .00000129 00000-0 31035-4 0 9993 2 28498 98.3333 119.8651 0016529 132.8296 227.4300 14.68804789858898 ARIANE 5 R/B 1 28499U 04049H 21018.84388774 .00000036 00000-0 11986-4 0 9998 2 28499 98.0622 127.4248 0090851 297.5619 172.9839 14.80081215867955